map of LGG home
LGG - Airport
Location
City:  Liège, Liège, Belgium
Near (Alt.):Luttich
Name:Liège Airport
Old (Alt.):Liège-Bierset Airport
ICAO:EBLG
IATA:LGG

Details
Type:Airport (Aerodrome, Airfield)
Use:Public/Civil, International (customs port of entry)
Latitude:50°38'11"N (50.636389)
Longitude:5°26'34"E (5.442778)
Elevation:659 ft (201 m)
Variation:1.51°E (WMM2015 magnetic declination)
0.14° annual change
Runways:2
Longest:10784 × 148 ft (3287 × 45 m), paved

Time
Time Zone:UTC+1 (DST+2)
Local Time:

Weather
METAR:EBLG 161720Z 04005KT 010V080 CAVOK 28/06 Q1012 NOSIG
TAF:EBLG 161700Z 1618/1724 27005KT CAVOK

Related Locations
Nearby:
Farthest:CHT: 11950 mi / 19232 km
Waitangi [Tuuta], CIT, NZ

Find:

   beyond  
but within

Other Information
Maps:
NOTAMs:
Links:
Sources:

  
  • flag of Belgium
  • flag of Liège
  • flag of Liège
  

Airport Diagram

Airport diagram for LGG

Larger airport diagram (OBSOLETE) from NGA

Sectional Chart

Flight Planning
at skyvector.com

Satellite Image

Google Maps Satellite view

 

Copyright © 2004-2018 Karl L. Swartz. All rights reserved.
The Great Circle Mapper name and logo are trademarks of the Great Circle Mapper.
All other trademarks mentioned herein belong to their respective owners.
Please see credits for attibutions and further copyright information.

  Follow gcmap on Facebook Follow gcmap on Twitter Follow gcmap on Google+ GCmap on LinkedIn

hCard Microformat

Geo Microformat